"2010-03-01 00:00:00",1722519,6.373,70.65,4.578,0.636,2.118,98.73037,-3.935,-2.573,96,0,109.3,13.68,-3.20,32.7
"2010-03-01 00:00:30",1722520,6.108,67.83,3.346,0.762,2.236,98.72697,-3.943,-2.539,95.9,0,109.3,13.68,-3.21,29.8
"2010-03-01 00:01:00",1722521,6.237,69.08,3.808,0.58,2.591,98.72836,-3.94,-2.558,96,0,109.3,13.68,-3.20,31.1
"2010-03-01 00:01:30",1722522,6.196,69.64,3.421,0.66,2.12,98.72862,-3.939,-2.559,96,0,109.4,13.68,-3.20,31.6
"2010-03-01 00:02:00",1722523,6.289,67.42,3.991,0.564,1.825,98.72862,-3.939,-2.584,96,0,109.3,13.69,-3.20,29.4
"2010-03-01 00:02:30",1722524,4.811,61.58,6.36,0.95,-0.944,98.7275,-3.942,-2.679,95.9,0,109.4,13.69,-3.20,23.6
"2010-03-01 00:03:00",1722525,5.3,65.18,5.617,1.099,-0.3,98.7289,-3.938,-2.79,95.8,0,109.4,13.68,-3.20,27.2
"2010-03-01 00:03:30",1722526,6.131,72.18,4.841,1.019,1.273,98.73197,-3.931,-2.637,95.9,0,109.3,13.68,-3.19,34.2
"2010-03-01 00:04:00",1722527,6.897,77.57,3.667,0.739,2.668,98.73086,-3.933,-2.571,96,0,109.4,13.69,-3.20,39.6
"2010-03-01 00:04:30",1722528,6.562,79.15,4.432,0.739,2.722,98.73254,-3.929,-2.581,96,0,109.3,13.69,-3.19,41.2
"2010-03-01 00:05:00",1722529,6.238,77.21,4.43,0.644,2.279,98.7317,-3.931,-2.581,96,0,109.3,13.69,-3.19,39.2
"2010-03-01 00:05:30",1722530,6.268,72.03,3.84,0.653,2.143,98.73338,-3.927,-2.561,96,0,109.3,13.68,-3.19,34.0
"2010-03-01 00:06:00",1722531,6.433,73.07,3.663,0.576,1.848,98.73226,-3.93,-2.584,96,0,109.4,13.68,-3.19,35.1
"2010-03-01 00:06:30",1722532,6.409,71.84,4.755,0.582,1.772,98.73197,-3.931,-2.582,96,0,109.3,13.68,-3.19,33.8
"2010-03-01 00:07:00",1722533,6.41,71.7,2.861,0.766,1.408,98.7331,-3.928,-2.599,96,0,109.4,13.68,-3.19,33.7
"2010-03-01 00:07:30",1722534,6.952,74.4,4.281,0.644,1.553,98.73226,-3.93,-2.605,96,0,109.3,13.68,-3.19,36.4
"2010-03-01 00:08:00",1722535,6.023,68.94,5.81,1.042,0.334,98.7331,-3.928,-2.625,96,0,109.3,13.68,-3.19,30.9
"2010-03-01 00:08:30",1722536,5.862,64.12,6.431,1.15,-0.325,98.7331,-3.928,-2.719,95.9,0,109.3,13.68,-3.19,26.1
"2010-03-01 00:09:00",1722537,5.403,65.99,7.404,1.083,-0.167,98.73253,-3.929,-2.727,95.9,0,109.3,13.68,-3.19,28.0
"2010-03-01 00:09:30",1722538,6.095,68.52,5.02,0.905,1.438,98.7331,-3.928,-2.619,96,0,109.3,13.68,-3.19,30.5
"2010-03-01 00:10:00",1722539,6.368,70.67,3.742,0.617,2.431,98.73196,-3.931,-2.615,96,0,109.4,13.68,-3.19,32.7
"2010-03-01 00:10:30",1722540,6.009,67.62,2.993,0.844,2.401,98.7294,-3.937,-2.588,96,0,109.3,13.68,-3.20,29.6
"2010-03-01 00:11:00",1722541,6.099,68.74,3.847,0.642,2.095,98.72601,-3.946,-2.611,96,0,109.3,13.68,-3.21,30.7
"2010-03-01 00:11:30",1722542,6.208,71.78,4.134,0.594,1.973,98.72034,-3.96,-2.634,96,0,109.3,13.68,-3.22,33.8
"2010-03-01 00:12:00",1722543,5.127,67.81,5.954,1.141,-0.373,98.71863,-3.965,-2.808,95.8,0,109.3,13.69,-3.23,29.8
"2010-03-01 00:12:30",1722544,5.355,69.02,6.069,1.145,0.092,98.7189,-3.964,-2.722,95.9,0,109.3,13.69,-3.23,31.0
"2010-03-01 00:13:00",1722545,5.14,65.18,5.736,1.197,-0.108,98.71776,-3.967,-2.733,95.9,0,109.3,13.69,-3.23,27.2
"2010-03-01 00:13:30",1722546,6.075,68.21,4.366,0.923,2.187,98.7155,-3.973,-2.645,96,0,109.3,13.69,-3.23,30.2
"2010-03-01 00:14:00",1722547,6.401,69.04,3.774,0.547,2.701,98.71097,-3.984,-2.593,96,0,109.3,13.69,-3.25,31.0
"2010-03-01 00:14:30",1722548,6.369,70.36,2.77,0.722,2.373,98.70869,-3.99,-2.598,96.1,0,109.3,13.69,-3.25,32.4
"2010-03-01 00:15:00",1722549,6.293,68.41,2.454,0.74,2.2,98.70865,-3.99,-2.618,96.1,0,109.4,13.69,-3.25,30.4
"2010-03-01 00:15:30",1722550,6.359,68.54,3.917,0.623,2.12,98.70358,-4.003,-2.61,96.1,0,109.3,13.69,-3.27,30.5
"2010-03-01 00:16:00",1722551,6.116,66.03,3.888,0.663,2.04,98.70412,-4.002,-2.604,96.1,0,109.3,13.69,-3.26,28.0
"2010-03-01 00:16:30",1722552,6.004,63.16,3.924,0.518,1.981,98.70412,-4.002,-2.616,96.1,0,109.3,13.69,-3.26,25.2
"2010-03-01 00:17:00",1722553,6.031,62.79,4.033,0.631,1.654,98.70524,-3.999,-2.615,96.1,0,109.3,13.69,-3.26,24.8
"2010-03-01 00:17:30",1722554,5.941,62.96,3.939,0.624,1.494,98.70468,-4,-2.611,96.1,0,109.3,13.69,-3.26,25.0
"2010-03-01 00:18:00",1722555,5.98,64.95,4.415,0.663,1.334,98.70552,-3.998,-2.615,96.1,0,109.3,13.69,-3.26,26.9
"2010-03-01 00:18:30",1722556,5.429,65.18,4.821,0.917,0.865,98.70664,-3.995,-2.607,96.1,0,109.3,13.69,-3.26,27.2
"2010-03-01 00:19:00",1722557,4.691,61.38,6.53,1.08,-0.979,98.70719,-3.994,-2.85,95.9,0,109.3,13.69,-3.26,23.4
"2010-03-01 00:19:30",1722558,4.036,59.44,5.999,0.982,-1.708,98.70635,-3.996,-2.796,96,0,109.3,13.69,-3.26,21.4
"2010-03-01 00:20:00",1722559,4.725,64.73,5.662,1.2,-0.261,98.70608,-3.997,-2.789,96,0,109.3,13.7,-3.26,26.7
"2010-03-01 00:20:30",1722560,5.637,70.31,4.271,0.668,2.127,98.70664,-3.995,-2.629,96.1,0,109.3,13.7,-3.26,32.3
"2010-03-01 00:21:00",1722561,5.499,72.54,3.054,0.732,2.294,98.70524,-3.999,-2.646,96.1,0,109.3,13.7,-3.26,34.5
"2010-03-01 00:21:30",1722562,5.613,74.49,3.492,0.626,2.345,98.7058,-3.997,-2.636,96.1,0,109.3,13.7,-3.26,36.5
"2010-03-01 00:22:00",1722563,5.52,75.17,3.334,0.354,2.057,98.70635,-3.996,-2.682,96.1,0,109.3,13.69,-3.26,37.2
"2010-03-01 00:22:30",1722564,4.484,71.11,5.574,1.157,0.301,98.70664,-3.995,-2.687,96.1,0,109.3,13.69,-3.26,33.1
"2010-03-01 00:23:00",1722565,3.68,63.39,5.558,1.017,-1.92,98.70692,-3.994,-2.853,95.9,0,109.3,13.69,-3.26,25.4
"2010-03-01 00:23:30",1722566,5.168,70.46,4.854,0.907,1.101,98.70719,-3.994,-2.777,96,0,109.3,13.69,-3.26,32.5
"2010-03-01 00:24:00",1722567,5.602,73.29,3.518,0.635,2.045,98.70635,-3.996,-2.618,96.1,0,109.3,13.69,-3.26,35.3
"2010-03-01 00:24:30",1722568,5.604,71.48,4.188,0.621,2.376,98.70635,-3.996,-2.641,96.1,0,109.3,13.69,-3.26,33.5
"2010-03-01 00:25:00",1722569,5.477,72.94,4.225,0.653,2.066,98.7058,-3.997,-2.63,96.1,0,109.3,13.69,-3.26,34.9
"2010-03-01 00:25:30",1722570,5.485,71.61,4.671,0.726,1.597,98.70692,-3.994,-2.659,96.1,0,109.3,13.69,-3.26,33.6
"2010-03-01 00:26:00",1722571,4.402,66.22,5.291,1.134,-0.853,98.70748,-3.993,-2.811,95.9,0,109.3,13.69,-3.26,28.2
"2010-03-01 00:26:30",1722572,3.824,68.96,4.899,0.952,-2.21,98.70748,-3.993,-2.905,95.9,0,109.3,13.69,-3.26,31.0
"2010-03-01 00:27:00",1722573,4.564,76.12,5.742,1.186,-0.147,98.70664,-3.995,-2.728,96.1,0,109.3,13.7,-3.26,38.1
"2010-03-01 00:27:30",1722574,5.298,78.76,4.342,0.976,1.536,98.70608,-3.997,-2.669,96.1,0,109.3,13.7,-3.26,40.8
"2010-03-01 00:28:00",1722575,5.495,73.94,3.864,0.838,1.808,98.70719,-3.994,-2.656,96.1,0,109.3,13.7,-3.26,35.9
"2010-03-01 00:28:30",1722576,5.568,75.81,4.156,0.658,2.111,98.70748,-3.993,-2.647,96.1,0,109.3,13.7,-3.26,37.8
"2010-03-01 00:29:00",1722577,5.551,77.94,4.317,0.36,2.139,98.70719,-3.994,-2.657,96.1,0,109.3,13.7,-3.26,39.9
"2010-03-01 00:29:30",1722578,5.535,78.54,3.183,0.737,1.371,98.70719,-3.994,-2.648,96.2,0,109.3,13.7,-3.26,40.5
"2010-03-01 00:30:00",1722579,3.594,65.14,3.329,0.388,-2.607,98.70748,-3.993,-2.863,95.9,0,109.3,13.7,-3.26,27.1
"2010-03-01 00:30:30",1722580,4.534,69.37,6.163,1.116,-0.96,98.70719,-3.994,-2.873,95.9,0,109.3,13.7,-3.26,31.4
"2010-03-01 00:31:00",1722581,4.671,71.44,5.693,1.206,0.02,98.70606,-3.997,-2.713,96.1,0,109.3,13.7,-3.26,33.4
"2010-03-01 00:31:30",1722582,5.713,75.32,3.989,0.653,2.39,98.70691,-3.994,-2.661,96.1,0,109.3,13.7,-3.26,37.3
"2010-03-01 00:32:00",1722583,5.776,76.08,3.286,0.507,2.359,98.70436,-4.001,-2.658,96.2,0,109.3,13.7,-3.26,38.1
"2010-03-01 00:32:30",1722584,5.705,74.57,2.886,0.624,2.224,98.70096,-4.01,-2.65,96.1,0,109.3,13.7,-3.27,36.6
"2010-03-01 00:33:00",1722585,5.862,77.28,4.181,0.72,1.924,98.69614,-4.022,-2.657,96.1,0,109.3,13.7,-3.28,39.3
"2010-03-01 00:33:30",1722586,5.114,72.92,5.625,1.044,0.878,98.69132,-4.034,-2.779,96,0,109.3,13.7,-3.30,34.9
"2010-03-01 00:34:00",1722587,4.832,72.16,6.612,1.103,-0.273,98.68792,-4.043,-2.797,96,0,109.3,13.7,-3.31,34.2
"2010-03-01 00:34:30",1722588,3.744,63.99,8.31,0.806,-1.716,98.68651,-4.046,-2.811,96,0,109.3,13.7,-3.31,26.0
"2010-03-01 00:35:00",1722589,5.203,74.55,5.455,0.791,1.472,98.68253,-4.057,-2.707,96.1,0,109.3,13.7,-3.32,36.6
"2010-03-01 00:35:30",1722590,5.473,70.49,4.557,0.808,2.093,98.68169,-4.059,-2.68,96.1,0,109.3,13.7,-3.32,32.5
"2010-03-01 00:36:00",1722591,5.745,71.99,4.831,0.569,2.16,98.68083,-4.061,-2.676,96.1,0,109.3,13.7,-3.32,34.0
"2010-03-01 00:36:30",1722592,5.083,69.81,7.652,1.019,1.079,98.67744,-4.07,-2.732,96.1,0,109.3,13.7,-3.33,31.8
"2010-03-01 00:37:00",1722593,4.674,72.13,5.957,1.111,0.435,98.67659,-4.072,-2.689,96.2,0,109.3,13.7,-3.33,34.1
"2010-03-01 00:37:30",1722594,4.216,63.23,7.024,1.227,-0.627,98.67432,-4.077,-2.882,95.9,0,109.3,13.7,-3.34,25.2
"2010-03-01 00:38:00",1722595,4.671,70.17,6.271,1.135,0.87,98.67374,-4.079,-2.775,96.1,0,109.3,13.71,-3.34,32.2
"2010-03-01 00:38:30",1722596,5.121,72.69,5.838,0.643,1.817,98.67346,-4.08,-2.681,96.2,0,109.3,13.7,-3.34,34.7
"2010-03-01 00:39:00",1722597,4.775,76.42,6.663,0.969,1.21,98.67346,-4.08,-2.765,96.1,0,109.3,13.7,-3.34,38.4
"2010-03-01 00:39:30",1722598,4.638,76.39,5.892,1.148,0.816,98.67346,-4.08,-2.73,96.1,0,109.3,13.7,-3.34,38.4
"2010-03-01 00:40:00",1722599,3.895,78.94,4.846,1.052,-0.583,98.67346,-4.08,-2.788,96.1,0,109.3,13.7,-3.34,40.9
"2010-03-01 00:40:30",1722600,4.703,78.18,5.283,0.995,0.512,98.67346,-4.08,-2.755,96.1,0,109.3,13.7,-3.34,40.2
"2010-03-01 00:41:00",1722601,4.704,80.5,7.693,0.963,1.087,98.67346,-4.08,-2.738,96.1,0,109.3,13.7,-3.34,42.5
"2010-03-01 00:41:30",1722602,4.366,84.6,4.85,1.001,1.266,98.67346,-4.08,-2.764,96.1,0,109.3,13.7,-3.34,46.6
"2010-03-01 00:42:00",1722603,4.403,83.5,8.96,1.114,1.038,98.67346,-4.08,-2.749,96.1,0,109.3,13.7,-3.34,45.5
"2010-03-01 00:42:30",1722604,3.845,88.5,6.162,1.189,-0.516,98.67346,-4.08,-2.88,96,0,109.3,13.7,-3.34,50.5
"2010-03-01 00:43:00",1722605,3.238,82.5,4.694,1.11,-1.204,98.67346,-4.08,-2.813,96,0,109.3,13.7,-3.34,44.5
"2010-03-01 00:43:30",1722606,4.069,84.3,5.374,1.096,0.624,98.67346,-4.08,-2.771,96.1,0,109.3,13.71,-3.34,46.3
"2010-03-01 00:44:00",1722607,4.36,76.52,7.897,1.05,1.025,98.67346,-4.08,-2.71,96.2,0,109.3,13.71,-3.34,38.5
"2010-03-01 00:44:30",1722608,4.379,80.9,5.299,1.018,1.063,98.67346,-4.08,-2.763,96.1,0,109.3,13.71,-3.34,42.9
"2010-03-01 00:45:00",1722609,4.505,80.1,5.162,1.005,1.029,98.67346,-4.08,-2.756,96.1,0,109.3,13.71,-3.34,42.1
"2010-03-01 00:45:30",1722610,3.216,72.42,4.067,0.802,-1.759,98.67346,-4.08,-2.808,96.1,0,109.3,13.71,-3.34,34.4
"2010-03-01 00:46:00",1722611,4.529,80.4,5.529,1.08,0.657,98.67346,-4.08,-2.771,96.1,0,109.3,13.71,-3.34,42.4
"2010-03-01 00:46:30",1722612,4.479,79.18,5.398,1.135,0.245,98.67346,-4.08,-2.811,96.1,0,109.3,13.71,-3.34,41.2
"2010-03-01 00:47:00",1722613,4.897,78.2,3.411,0.813,1.217,98.67346,-4.08,-2.761,96.1,0,109.3,13.71,-3.34,40.2
"2010-03-01 00:47:30",1722614,4.208,72.74,6.488,1.178,0.076,98.67346,-4.08,-2.791,96.1,0,109.3,13.71,-3.34,34.7
"2010-03-01 00:48:00",1722615,4.572,75.53,5.631,1.064,0.76,98.67346,-4.08,-2.77,96.1,0,109.3,13.71,-3.34,37.5
"2010-03-01 00:48:30",1722616,5.089,76.38,5.038,0.877,0.94,98.67346,-4.08,-2.936,95.9,0,109.3,13.71,-3.34,38.4
"2010-03-01 00:49:00",1722617,4.512,72.38,5.906,1.191,0.36,98.67346,-4.08,-2.772,96.1,0,109.3,13.71,-3.34,34.4
"2010-03-01 00:49:30",1722618,4.886,72.49,5.396,1.056,0.627,98.67346,-4.08,-2.774,96.1,0,109.3,13.71,-3.34,34.5
"2010-03-01 00:50:00",1722619,5.007,70.15,5.605,1.024,1.026,98.67346,-4.08,-2.774,96.1,0,109.2,13.71,-3.34,32.2
"2010-03-01 00:50:30",1722620,4.926,71.6,5.486,1.088,1.171,98.6729,-4.081,-2.778,96.1,0,109.3,13.71,-3.34,33.6
"2010-03-01 00:51:00",1722621,5.073,72.03,5.043,1.017,1.422,98.66751,-4.095,-2.82,96.1,0,109.4,13.71,-3.36,34.0
"2010-03-01 00:51:30",1722622,4.905,71.86,5.89,0.996,1.035,98.6644,-4.103,-2.77,96.1,0,109.3,13.71,-3.37,33.9
"2010-03-01 00:52:00",1722623,4.864,71.45,5.398,1.162,0.498,98.65702,-4.122,-2.813,96.1,0,109.3,13.71,-3.38,33.4
"2010-03-01 00:52:30",1722624,5.259,73.67,4.756,1.007,1.016,98.65192,-4.135,-2.782,96.1,0,109.3,13.71,-3.40,35.7
"2010-03-01 00:53:00",1722625,5.368,72.89,5.203,1.045,1.024,98.64597,-4.15,-2.809,96.1,0,109.3,13.71,-3.41,34.9
"2010-03-01 00:53:30",1722626,5.307,70.13,6.244,1.104,0.593,98.6437,-4.155,-2.829,96.1,0,109.3,13.71,-3.42,32.1
"2010-03-01 00:54:00",1722627,5.883,72.82,3.757,0.844,1.921,98.64172,-4.16,-2.746,96.2,0,109.3,13.71,-3.42,34.8
"2010-03-01 00:54:30",1722628,5.902,70.8,4.988,0.747,1.657,98.63974,-4.166,-2.795,96.1,0,109.3,13.71,-3.43,32.8
"2010-03-01 00:55:00",1722629,5.303,69.42,5.807,1.123,0.497,98.63945,-4.166,-2.823,96.1,0,109.3,13.71,-3.43,31.4
"2010-03-01 00:55:30",1722630,5.882,72.94,4.373,0.992,1.222,98.63945,-4.166,-2.795,96.1,0,109.3,13.71,-3.43,34.9
"2010-03-01 00:56:00",1722631,5.986,73.2,3.826,0.836,1.826,98.63945,-4.166,-2.779,96.1,0,109.3,13.7,-3.43,35.2
"2010-03-01 00:56:30",1722632,5.359,68.8,5.9,1.142,0.638,98.63945,-4.166,-2.821,96.1,0,109.2,13.7,-3.43,30.8
"2010-03-01 00:57:00",1722633,6.222,72.63,3.694,0.545,2.024,98.63945,-4.166,-2.763,96.2,0,109.3,13.7,-3.43,34.6
"2010-03-01 00:57:30",1722634,6.094,72.45,3.806,0.808,1.863,98.63945,-4.166,-2.755,96.2,0,109.3,13.7,-3.43,34.4
"2010-03-01 00:58:00",1722635,5.829,71.29,5.053,1.036,1.039,98.63945,-4.166,-2.875,96.1,0,109.3,13.7,-3.43,33.3
"2010-03-01 00:58:30",1722636,5.855,71.92,5.648,1.049,1.1,98.63945,-4.166,-2.891,96.1,0,109.3,13.7,-3.43,33.9
"2010-03-01 00:59:00",1722637,6.159,74.06,3.977,0.766,1.454,98.63945,-4.166,-2.809,96.2,0,109.3,13.7,-3.43,36.1
"2010-03-01 00:59:30",1722638,5.675,72.88,5.282,1.089,1.537,98.63945,-4.166,-2.85,96.1,0,109.3,13.71,-3.43,34.9
"2010-03-01 01:00:00",1722639,5.927,74.55,4.898,0.937,1.798,98.63945,-4.166,-2.829,96.2,0,109.3,13.71,-3.43,36.6
"2010-03-01 01:00:30",1722640,6.293,77.64,3.413,0.735,1.88,98.63945,-4.166,-2.792,96.2,0,109.3,13.71,-3.43,39.6
"2010-03-01 01:01:00",1722641,6.384,81.6,3.332,0.642,2.196,98.63945,-4.166,-2.798,96.2,0,109.3,13.71,-3.43,43.6
"2010-03-01 01:01:30",1722642,6.499,81.9,3.175,0.505,1.703,98.63945,-4.166,-2.79,96.2,0,109.3,13.71,-3.43,43.9
"2010-03-01 01:02:00",1722643,6.303,81.6,3.106,0.726,1.635,98.63945,-4.166,-2.791,96.2,0,109.3,13.71,-3.43,43.6
"2010-03-01 01:02:30",1722644,6.413,80.8,4.125,0.474,1.511,98.63917,-4.167,-2.801,96.2,0,109.3,13.71,-3.43,42.8
"2010-03-01 01:03:00",1722645,6.078,83.3,2.937,0.818,1.224,98.63917,-4.167,-2.793,96.2,0,109.3,13.71,-3.43,45.3
"2010-03-01 01:03:30",1722646,5.632,81.7,5.632,1.005,0.047,98.63691,-4.173,-2.959,96,0,109.3,13.71,-3.44,43.7
"2010-03-01 01:04:00",1722647,4.471,77.87,5.336,1.039,-1.252,98.63351,-4.181,-2.964,96,0,109.3,13.71,-3.44,39.9
"2010-03-01 01:04:30",1722648,5.25,80,5.819,1.192,-0.306,98.62698,-4.198,-2.976,96,0,109.3,13.71,-3.46,42.0
"2010-03-01 01:05:00",1722649,6.158,83.5,4.083,0.662,2.084,98.62357,-4.207,-2.809,96.2,0,109.3,13.71,-3.47,45.5
"2010-03-01 01:05:30",1722650,5.949,85.4,2.741,0.751,2.248,98.62386,-4.206,-2.807,96.2,0,109.3,13.71,-3.47,47.4
"2010-03-01 01:06:00",1722651,5.968,83.9,4.177,0.537,2.385,98.62244,-4.21,-2.835,96.2,0,109.3,13.71,-3.47,45.9
"2010-03-01 01:06:30",1722652,5.966,85.2,3.2,0.579,1.906,98.62132,-4.212,-2.82,96.2,0,109.3,13.71,-3.48,47.2
"2010-03-01 01:07:00",1722653,5.246,82.9,5.358,1.066,0.556,98.62019,-4.215,-2.864,96.2,0,109.3,13.71,-3.48,44.9
"2010-03-01 01:07:30",1722654,4.521,77.86,5.634,1.091,-1.607,98.61763,-4.222,-3.038,96,0,109.3,13.71,-3.48,39.9
"2010-03-01 01:08:00",1722655,4.105,75.68,4.283,0.897,-1.975,98.61848,-4.22,-3.028,96,0,109.3,13.71,-3.48,37.7
"2010-03-01 01:08:30",1722656,5.898,85.1,3.306,0.757,2.122,98.61649,-4.225,-2.809,96.2,0,109.3,13.71,-3.49,47.1
"2010-03-01 01:09:00",1722657,5.923,86.6,3.557,0.621,2.527,98.61451,-4.23,-2.837,96.2,0,109.3,13.71,-3.49,48.6
"2010-03-01 01:09:30",1722658,5.782,87.8,3.061,0.747,2.162,98.61337,-4.233,-2.825,96.2,0,109.3,13.71,-3.50,49.8
"2010-03-01 01:10:00",1722659,5.974,88.3,4.676,0.304,2.128,98.6114,-4.238,-2.833,96.2,0,109.3,13.71,-3.50,50.3
"2010-03-01 01:10:30",1722660,5.583,89.1,4.163,0.895,1.111,98.60912,-4.244,-2.817,96.2,0,109.3,13.71,-3.51,51.1
"2010-03-01 01:11:00",1722661,4.8,83.2,5.64,1.235,-0.541,98.60658,-4.25,-2.967,96.1,0,109.3,13.71,-3.51,45.2
"2010-03-01 01:11:30",1722662,4.276,78.01,4.957,0.898,-1.652,98.60573,-4.252,-2.989,96.1,0,109.3,13.71,-3.52,40.0
"2010-03-01 01:12:00",1722663,5.715,84.8,5.396,0.953,1.619,98.60545,-4.253,-2.888,96.1,0,109.3,13.71,-3.52,46.8
"2010-03-01 01:12:30",1722664,5.941,86.9,3.126,0.603,2.697,98.60545,-4.253,-2.829,96.2,0,109.3,13.71,-3.52,48.9
"2010-03-01 01:13:00",1722665,5.729,87.7,2.985,0.818,2.447,98.60545,-4.253,-2.852,96.2,0,109.3,13.71,-3.52,49.7
"2010-03-01 01:13:30",1722666,5.746,86.8,2.838,0.731,2.069,98.60572,-4.252,-2.852,96.2,0,109.3,13.71,-3.52,48.8
"2010-03-01 01:14:00",1722667,5.735,86.5,3.832,0.631,1.929,98.60545,-4.253,-2.855,96.2,0,109.3,13.71,-3.52,48.5
"2010-03-01 01:14:30",1722668,5.378,85.1,4.984,0.966,1.159,98.60545,-4.253,-2.86,96.2,0,109.3,13.71,-3.52,47.1
"2010-03-01 01:15:00",1722669,5.11,83.8,5.715,1.119,-0.151,98.60545,-4.253,-3.049,96,0,109.3,13.71,-3.52,45.8
"2010-03-01 01:15:30",1722670,4.544,79.75,5.229,1.174,-1.516,98.60545,-4.253,-3.116,95.9,0,109.3,13.71,-3.52,41.8
"2010-03-01 01:16:00",1722671,4.94,83.5,6.063,1.152,0.137,98.60545,-4.253,-2.897,96.2,0,109.3,13.71,-3.52,45.5
"2010-03-01 01:16:30",1722672,5.592,88.8,3.81,0.673,2.331,98.60545,-4.253,-2.84,96.2,0,109.3,13.71,-3.52,50.8
"2010-03-01 01:17:00",1722673,5.506,89.6,4.21,0.651,2.676,98.60545,-4.253,-2.851,96.2,0,109.3,13.72,-3.52,51.6
"2010-03-01 01:17:30",1722674,5.077,89.1,5.32,1,1.288,98.60545,-4.253,-2.925,96.1,0,109.3,13.72,-3.52,51.1
"2010-03-01 01:18:00",1722675,4.917,87.1,5.702,1.121,0.816,98.60545,-4.253,-2.934,96.1,0,109.3,13.72,-3.52,49.1
"2010-03-01 01:18:30",1722676,4.852,84.5,5.984,1.081,0.271,98.60572,-4.252,-2.935,96.1,0,109.3,13.72,-3.52,46.5
"2010-03-01 01:19:00",1722677,4.444,80.4,5.662,1.144,-0.604,98.60545,-4.253,-2.986,96.1,0,109.3,13.72,-3.52,42.4
"2010-03-01 01:19:30",1722678,4.709,82.4,5.754,1.163,0.671,98.60572,-4.252,-2.922,96.1,0,109.3,13.72,-3.52,44.4
"2010-03-01 01:20:00",1722679,5.354,84.7,3.892,0.845,1.745,98.60656,-4.25,-2.864,96.2,0,109.3,13.72,-3.51,46.7
"2010-03-01 01:20:30",1722680,5.148,83.2,5.455,1.007,1.068,98.60545,-4.253,-2.927,96.2,0,109.3,13.72,-3.52,45.2
"2010-03-01 01:21:00",1722681,5.09,82,5.954,0.995,0.846,98.60629,-4.251,-2.921,96.2,0,109.3,13.72,-3.51,44.0
"2010-03-01 01:21:30",1722682,5.269,83.7,5.019,0.831,1.06,98.60629,-4.251,-2.907,96.2,0,109.3,13.72,-3.51,45.7
"2010-03-01 01:22:00",1722683,4.943,82.5,5.752,1.064,0.235,98.60572,-4.252,-2.968,96.1,0,109.3,13.72,-3.52,44.5
"2010-03-01 01:22:30",1722684,4.953,84,5.56,1.08,0.743,98.60656,-4.25,-2.961,96.2,0,109.3,13.72,-3.51,46.0
"2010-03-01 01:23:00",1722685,4.929,82.4,6.151,1.028,0.781,98.60572,-4.252,-2.944,96.1,0,109.3,13.72,-3.52,44.4
"2010-03-01 01:23:30",1722686,4.452,83.3,5.683,1.208,0.419,98.60572,-4.252,-2.932,96.2,0,109.3,13.72,-3.52,45.3
"2010-03-01 01:24:00",1722687,5.018,89,4.541,0.892,1.124,98.60628,-4.251,-2.934,96.1,0,109.3,13.72,-3.51,51.0
"2010-03-01 01:24:30",1722688,4.853,89.8,4.787,1.01,0.893,98.60487,-4.254,-2.901,96.2,0,109.3,13.72,-3.52,51.8
"2010-03-01 01:25:00",1722689,4.657,88.8,5.265,1.059,1.061,98.60515,-4.254,-2.922,96.2,0,109.3,13.72,-3.52,50.8
"2010-03-01 01:25:30",1722690,3.879,84.6,6.002,1.16,-0.083,98.60372,-4.257,-2.987,96.1,0,109.3,13.72,-3.52,46.6
"2010-03-01 01:26:00",1722691,4.527,88.6,5.324,1.063,1.262,98.60402,-4.257,-2.952,96.1,0,109.3,13.73,-3.52,50.6
"2010-03-01 01:26:30",1722692,4.383,86.4,5.647,1.047,0.706,98.59692,-4.275,-2.932,96.2,0,109.3,13.73,-3.54,48.4
"2010-03-01 01:27:00",1722693,4.366,85.4,5.878,1.008,0.758,98.59409,-4.282,-2.945,96.1,0,109.3,13.73,-3.54,47.4
"2010-03-01 01:27:30",1722694,4.098,84.9,6.58,1.079,0.111,98.59012,-4.292,-3.006,96.1,0,109.3,13.72,-3.55,46.9
"2010-03-01 01:28:00",1722695,4.153,83.3,6.629,1.083,0.624,98.587,-4.3,-2.935,96.2,0,109.3,13.72,-3.56,45.3
"2010-03-01 01:28:30",1722696,3.976,82.1,6.15,1.135,-0.284,98.58643,-4.301,-3.097,96,0,109.3,13.71,-3.56,44.1
"2010-03-01 01:29:00",1722697,4.08,80.9,6.182,1.126,0.886,98.58387,-4.308,-2.959,96.1,0,109.3,13.71,-3.57,42.9
"2010-03-01 01:29:30",1722698,4.154,77.68,6.395,1.06,0.467,98.58556,-4.304,-2.94,96.2,0,109.3,13.72,-3.57,39.7
"2010-03-01 01:30:00",1722699,3.749,75.62,6.496,1.199,-0.43,98.58131,-4.314,-3.028,96.1,0,109.3,13.71,-3.58,37.6
"2010-03-01 01:30:30",1722700,4.113,79.92,5.704,0.975,0.45,98.58189,-4.313,-2.962,96.2,0,109.3,13.72,-3.58,41.9
"2010-03-01 01:31:00",1722701,3.598,78.18,5.257,1.177,-0.365,98.58468,-4.306,-3.058,96.1,0,109.3,13.72,-3.57,40.2
"2010-03-01 01:31:30",1722702,3.804,77.52,5.466,1.125,0.092,98.58468,-4.306,-3.034,96.1,0,109.3,13.72,-3.57,39.5
"2010-03-01 01:32:00",1722703,3.708,71.33,5.545,1.223,0.023,98.58442,-4.306,-2.969,96.1,0,109.3,13.72,-3.57,33.3
"2010-03-01 01:32:30",1722704,3.689,71.13,6.471,1.162,0.122,98.58298,-4.31,-2.949,96.2,0,109.3,13.73,-3.57,33.1
"2010-03-01 01:33:00",1722705,3.911,75.72,6.118,1.086,0.12,98.58439,-4.306,-2.949,96.1,0,109.3,13.73,-3.57,37.7
"2010-03-01 01:33:30",1722706,3.85,75.93,5.949,1.108,0.105,98.5844,-4.306,-2.936,96.1,0,109.3,13.73,-3.57,37.9
"2010-03-01 01:34:00",1722707,3.994,77.01,4.522,1.057,0.748,98.58298,-4.31,-2.994,96.1,0,109.3,13.73,-3.57,39.0
"2010-03-01 01:34:30",1722708,3.642,71.41,6.179,1.169,-0.157,98.58607,-4.302,-3.061,96,0,109.3,13.73,-3.57,33.4
"2010-03-01 01:35:00",1722709,4.147,74.82,5.678,0.99,0.612,98.5855,-4.304,-2.959,96.1,0,109.3,13.73,-3.57,36.8
"2010-03-01 01:35:30",1722710,3.774,73.1,5.681,1.188,-0.194,98.58689,-4.3,-3,96.1,0,109.3,13.73,-3.56,35.1
"2010-03-01 01:36:00",1722711,4.261,74.64,5.53,1.044,0.45,98.58464,-4.306,-2.953,96.1,0,109.3,13.73,-3.57,36.6
"2010-03-01 01:36:30",1722712,4.402,74.84,5.252,1.005,0.46,98.58688,-4.3,-2.96,96.1,0,109.3,13.73,-3.56,36.8
"2010-03-01 01:37:00",1722713,3.304,70.34,5.297,1.099,-1.199,98.58322,-4.309,-3.051,96,0,109.3,13.73,-3.57,32.3
"2010-03-01 01:37:30",1722714,3.79,74.14,6.092,1.145,-0.27,98.58151,-4.314,-2.984,96.1,0,109.3,13.73,-3.58,36.1
"2010-03-01 01:38:00",1722715,4.437,77.55,5.358,0.981,0.53,98.58038,-4.317,-2.959,96.1,0,109.3,13.73,-3.58,39.6
"2010-03-01 01:38:30",1722716,4.238,78.11,5.727,1.085,-0.023,98.57925,-4.32,-2.967,96.1,0,109.3,13.73,-3.58,40.1
"2010-03-01 01:39:00",1722717,4.037,79.55,5.822,1.156,-0.116,98.58204,-4.312,-2.948,96.1,0,109.3,13.73,-3.58,41.6
"2010-03-01 01:39:30",1722718,4.397,81.2,5.226,1.011,0.676,98.58652,-4.301,-2.959,96.2,0,109.3,13.73,-3.56,43.2
"2010-03-01 01:40:00",1722719,3.364,76.86,5.251,1.097,-1.038,98.58344,-4.309,-2.985,96.1,0,109.3,13.73,-3.57,38.9
"2010-03-01 01:40:30",1722720,4.399,81.7,5.486,1.063,0.534,98.58484,-4.305,-2.97,96.1,0,109.3,13.73,-3.57,43.7
"2010-03-01 01:41:00",1722721,4.306,82,5.604,1.095,0.268,98.58568,-4.303,-2.96,96.1,0,109.3,13.73,-3.57,44.0
"2010-03-01 01:41:30",1722722,4.797,84.3,4.199,0.747,0.52,98.58819,-4.297,-3.018,96.1,0,109.3,13.73,-3.56,46.3
"2010-03-01 01:42:00",1722723,4.339,82,5.753,1.087,0.451,98.58847,-4.296,-3.008,96.1,0,109.3,13.73,-3.56,44.0
"2010-03-01 01:42:30",1722724,4.049,81.9,5.996,1.16,0.214,98.58679,-4.3,-2.949,96.2,0,109.3,13.73,-3.56,43.9
"2010-03-01 01:43:00",1722725,4.032,80.7,5.989,1.134,0.157,98.58568,-4.303,-2.99,96.1,0,109.3,13.73,-3.57,42.7
"2010-03-01 01:43:30",1722726,3.864,77.92,5.938,1.182,-0.399,98.58595,-4.303,-2.992,96.1,0,109.3,13.73,-3.57,39.9
"2010-03-01 01:44:00",1722727,3.655,77.2,6.446,1.16,-0.841,98.58763,-4.298,-3.024,96,0,109.3,13.73,-3.56,39.2
"2010-03-01 01:44:30",1722728,4.161,79.45,5.613,1.071,0.176,98.58363,-4.308,-2.991,96.1,0,109.3,13.73,-3.57,41.4
"2010-03-01 01:45:00",1722729,4.109,79.38,4.901,1.057,0.048,98.57487,-4.331,-3.027,96.1,0,109.3,13.73,-3.59,41.4
"2010-03-01 01:45:30",1722730,3.67,74.44,6.335,1.175,-0.485,98.56978,-4.344,-3.052,96.1,0,109.3,13.73,-3.61,36.4
"2010-03-01 01:46:00",1722731,3.583,75.21,5.981,1.196,0.061,98.56695,-4.351,-3.029,96.1,0,109.3,13.73,-3.61,37.2
"2010-03-01 01:46:30",1722732,3.968,76.62,5.401,1.065,0.322,98.56494,-4.356,-3.012,96.1,0,109.3,13.73,-3.62,38.6
"2010-03-01 01:47:00",1722733,3.061,72.25,5.707,1.083,-1.468,98.56213,-4.363,-3.103,96,0,109.3,13.73,-3.63,34.2